Decimomannu, Italy

2:49 AM CEST on September 24, 2017 (GMT +0200)
Decimomannu Mil

Weather History for LIED - December, 2013

Change the Weather History Date:

Friday, December 20, 2013

  Actual Average Record
Temperature  
Mean Temperature 54 °F -  
Max Temperature 65 °F 58 °F 65 °F (2013)
Min Temperature 44 °F 41 °F 33 °F (2007)
Degree Days  
Heating Degree Days 10    
Growing Degree Days 4 (Base 50)    
Moisture  
Dew Point 53 °F    
Average Humidity 83    
Maximum Humidity 94    
Minimum Humidity 66    
Precipitation  
Precipitation 0.00 in 0.07 in - ()
Sea Level Pressure  
Sea Level Pressure 30.15 in    
Wind  
Wind Speed 10 mph ()    
Max Wind Speed 21 mph    
Max Gust Speed 33 mph    
Visibility 6.2 miles    
Events      
Averages and records for this station are not official NWS values.
T = Trace of Precipitation, MM = Missing Value Source: Averaged Metar Reports

Daily Weather History Graph

Daily Weather History Graph

Search for Another Location

Airport or City:

Trip Planner

Search our weather history database for the weather conditions in past years. The results will help you decide how hot, cold, wet, or windy it might be!

Date:

Astronomy

Dec. 20, 2013 Rise Set
Actual Time 7:39 AM CET 5:03 PM CET
Civil Twilight 7:09 AM CET 5:33 PM CET
Nautical Twilight 6:35 AM CET 6:07 PM CET
Astronomical Twilight 6:03 AM CET 6:40 PM CET
Moon 8:08 PM CET (12/20) 9:25 AM CET (12/20)
Length of Visible Light 10h 24m
Length of Day
9h 23m
Waning Gibbous, 92% of the Moon is Illuminated
Dec 20
Waning Gibbous
Dec 25
Last Quarter
Jan 1
New
Jan 8
First Quarter
Jan 16
Full

Hourly Weather History & Observations

Time (CET) Temp. Dew Point Humidity Pressure Visibility Wind Dir Wind Speed Gust Speed Precip Events Conditions
12:55 AM 50.0 °F 46.4 °F 87% 30.04 in 3.1 mi SE 10.4 mph - N/A   Scattered Clouds
1:00 AM 49 °F 46 °F 87% 30.06 in 3 mi SE 10.4 mph - -   Mist
1:55 AM 50.0 °F 46.4 °F 87% 30.04 in 3.1 mi ESE 2.3 mph - N/A   Scattered Clouds
2:55 AM 53.6 °F 50.0 °F 88% 30.04 in 3.7 mi SE 9.2 mph - N/A   Scattered Clouds
3:55 AM 55.4 °F 51.8 °F 88% 30.01 in 6.2 mi ESE 8.1 mph - N/A   Mostly Cloudy
4:00 AM 55 °F 51 °F 81% 30.03 in 6 mi ESE 8.1 mph - -   Mostly Cloudy
4:55 AM 55.4 °F 51.8 °F 88% 30.01 in 6.2 mi SE 10.4 mph - N/A   Mostly Cloudy
6:55 AM 53.6 °F 50.0 °F 88% 30.04 in 6.2 mi ESE 9.2 mph - N/A   Scattered Clouds
7:00 AM 54 °F 51 °F 84% 30.04 in 6 mi ESE 9.2 mph - -   Partly Cloudy
7:55 AM 53.6 °F 50.0 °F 88% 30.06 in 6.2 mi SE 9.2 mph - N/A   Scattered Clouds
8:55 AM 57.2 °F 51.8 °F 82% 30.06 in 6.2 mi ESE 13.8 mph - N/A   Partly Cloudy
9:55 AM 60.8 °F 55.4 °F 82% 30.09 in 6.2 mi SE 11.5 mph - N/A   Partly Cloudy
10:00 AM 61 °F 55 °F 75% 30.10 in 7 mi SE 11.5 mph - -   Scattered Clouds
10:55 AM 62.6 °F 53.6 °F 72% 30.09 in 6.2 mi SSE 18.4 mph - N/A   Scattered Clouds
11:55 AM 64.4 °F 55.4 °F 73% 30.12 in 6.2 mi SSE 20.7 mph 33.4 mph N/A   Scattered Clouds
12:55 PM 66.2 °F 57.2 °F 73% 30.12 in 6.2 mi SSE 20.7 mph - N/A   Scattered Clouds
1:00 PM 66 °F 57 °F 66% 30.15 in 12 mi SSE 20.7 mph - -   Partly Cloudy
1:55 PM 64.4 °F 57.2 °F 77% 30.12 in 6.2 mi SE 16.1 mph - N/A   Scattered Clouds
2:55 PM 62.6 °F 57.2 °F 82% 30.15 in 6.2 mi SSE 18.4 mph - N/A   Scattered Clouds
3:55 PM 62.6 °F 57.2 °F 82% 30.18 in 6.2 mi SSE 16.1 mph - N/A   Scattered Clouds
4:00 PM 62 °F 57 °F 79% 30.21 in 12 mi SSE 16.1 mph - -   Partly Cloudy
4:55 PM 59.0 °F 57.2 °F 94% 30.21 in 6.2 mi SSE 13.8 mph - N/A   Scattered Clouds
5:55 PM 59.0 °F 57.2 °F 94% 30.21 in 6.2 mi SE 16.1 mph - N/A   Mostly Cloudy
6:55 PM 57.2 °F 51.8 °F 82% 30.24 in 6.2 mi SE 11.5 mph - N/A   Scattered Clouds
7:00 PM 58 °F 51 °F 71% 30.26 in 6 mi SE 11.5 mph - -   Partly Cloudy
7:55 PM 57.2 °F 53.6 °F 88% 30.27 in 6.2 mi ESE 9.2 mph - N/A   Scattered Clouds
8:55 PM 57.2 °F 53.6 °F 88% 30.30 in 6.2 mi East 4.6 mph - N/A   Mostly Cloudy
9:55 PM 55.4 °F 51.8 °F 88% 30.33 in 6.2 mi East 6.9 mph - N/A   Scattered Clouds
10:00 PM 55 °F 53 °F 88% 30.35 in 6 mi East 6.9 mph - -   Partly Cloudy
10:55 PM 55.4 °F 51.8 °F 88% 30.36 in 6.2 mi East 6.9 mph - N/A   Scattered Clouds
11:55 PM 55.4 °F 51.8 °F 88% 30.36 in 6.2 mi East 6.9 mph - N/A   Scattered Clouds